[[{"header":{"parameterUnit":"m.s-1","parameterCategory":1,"la1":30.2991,"la2":30.254,"lo1":-89.0895,"lo2":-89.0444,"dy":0.0017,"dx":0.0017,"nx":28,"ny":28,"refTime":"2025-03-11T21:00:00:Z","depth":0,"parameterNumber":2,"parameterNumberName":"U-component_of_WINDS"},"data":[0,0,0,0,0,0,0,0,0,0,0,0,0,0,0,0,0,0,0,0,0,0,0,0,0,0,0,0,0,0,0,0,0,0,0,0,0,0,0,0,0,0,0,0,0,0,0,0,0,0,0,0,0,0,0,0,0,0,1.9141,1.9141,0,1.9162,1.9162,1.9162,1.9049,1.9046,1.9043,1.904,1.9067,1.9071,1.9075,0,0,0,0,0,0,0,0,0,0,0,0,0,1.9006,1.9009,1.914,1.9141,1.9141,1.9162,1.9162,1.9162,1.905,1.9046,1.9042,1.9038,1.9066,1.907,1.9075,0,0,0,0,0,0,0,0,0,0,0,0,0,1.905,1.901,1.914,1.9087,1.9083,1.9161,1.9162,1.9162,1.9051,1.9046,1.9041,1.9036,1.9064,1.907,1.9076,1.9208,0,0,1.9093,1.9095,0,0,0,0,0,0,0,0,1.9048,1.9055,1.9095,1.9091,1.9086,1.9098,1.9124,1.9178,1.9052,1.9063,1.904,1.9034,1.9082,1.9086,1.91,1.9209,1.921,1.9093,1.9097,1.9099,1.9101,0,0,0,0,0,0,0,1.9045,1.9053,1.9149,1.9096,1.909,1.9063,1.9064,1.9134,1.91,1.9062,1.9054,1.9057,1.9078,1.9095,1.91,1.9211,1.9093,1.9098,1.9102,1.9104,1.9428,1.9433,0,0,0,0,0,0,1.9048,1.9052,1.9148,1.915,1.9054,1.907,1.9071,1.9099,1.9099,1.9094,1.9062,1.9052,1.9088,1.9094,1.9101,1.9255,1.9099,1.9104,1.9108,1.9423,1.9429,1.9435,0,0,0,0,0,0,1.9046,1.9058,1.9147,1.9098,1.9108,1.9077,1.911,1.9102,1.9119,1.9098,1.9092,1.9085,1.9084,1.9093,1.9181,1.9255,1.9107,1.9112,1.9416,1.9425,1.9432,1.9566,0,0,0,0,0,0,1.9042,1.9058,1.9107,1.91,1.9111,1.9227,1.9115,1.9106,1.9128,1.9116,1.9119,1.9114,1.9081,1.9174,1.9187,1.926,1.9116,1.941,1.942,1.9429,1.9555,1.9578,1.9597,0,0,0,0,0,1.9038,1.9146,1.911,1.9123,1.9172,1.9232,1.9238,1.9196,1.9135,1.9184,1.9171,1.9114,1.9244,1.9184,1.9198,1.9274,1.9405,1.9417,1.9429,1.9546,1.9573,1.9596,0,0,0,0,0,0,1.9165,1.9144,1.9105,1.9213,1.9225,1.9213,1.9275,1.9227,1.9258,1.9245,1.9193,1.9195,1.9292,1.9291,1.9224,1.9401,1.9314,1.9329,1.9398,1.9424,1.9445,1.9444,1.9121,0,0,0,0,0,1.9205,1.9254,1.9234,1.9332,1.9339,1.9306,1.9331,1.9297,1.9307,1.9313,1.9305,1.932,1.9363,1.9393,1.9432,1.9553,1.9552,1.9612,1.9633,1.965,1.9665,1.9728,1.9754,1.9473,1.9473,1.9473,0,0,1.929,1.9284,1.9319,1.9357,1.9362,1.9415,1.9311,1.9372,1.9411,1.9322,1.9405,1.94,1.9412,1.9517,1.9563,1.952,1.9742,1.9665,1.9679,1.9684,1.9743,1.977,1.9793,1.9481,1.948,1.9478,0,0,1.9471,1.9471,1.9552,1.9559,1.9566,1.9543,1.9563,1.9557,1.955,1.9631,1.9565,1.9611,1.9688,1.9698,1.9714,1.9896,1.9845,1.991,2.002,2.0083,2.0105,2.0124,2.019,2.0214,1.9924,1.9924,1.9925,0,1.9576,1.9652,1.9601,1.9665,1.9684,1.9603,1.9685,1.9694,1.9715,1.9731,1.968,1.9772,1.9775,1.9881,1.9925,1.994,1.9962,1.9911,2.0105,2.0124,2.0142,2.0204,2.0228,1.9932,1.9931,1.993,1.993,0,1.978,1.9834,1.9898,1.9918,1.9944,2.0017,1.9978,2.001,1.9973,1.9955,2.0039,2.0038,2.0075,2.0097,2.0063,2.0198,2.0171,2.0114,2.0026,2.0177,2.0235,2.0258,1.9944,1.9941,1.9938,1.9936,0,0,2.0046,2.0034,2.0059,2.0066,2.0067,2.0108,2.0177,2.021,2.0239,2.0256,2.0313,2.0377,2.0324,2.0342,2.0307,2.0362,2.0506,2.0298,2.0297,2.0337,2.0655,2.07,2.0728,2.0471,2.0475,2.0478,2.0655,0,2.0224,2.034,2.0295,2.0415,2.0464,2.0385,2.0445,2.0453,2.0437,2.0477,2.046,2.0507,2.0432,2.0442,2.0492,2.0478,2.0569,2.0464,2.0525,2.0528,2.0527,2.0758,2.0805,2.0972,2.0677,2.068,2.0683,0,2.0448,2.047,2.0595,2.0586,2.0604,2.0659,2.0685,2.0724,2.0731,2.0715,2.0733,2.0686,2.0754,2.0664,2.0757,2.0686,2.0708,2.0704,2.0709,2.0716,2.0617,2.0772,2.1024,2.1049,2.0718,2.0715,2.0712,0,2.063,2.0692,2.0774,2.0782,2.0774,2.0814,2.0812,2.0813,2.0836,2.0859,2.0873,2.0905,2.0923,2.0948,2.0911,2.0849,2.1009,2.0916,2.1,2.1001,2.104,2.1038,2.1301,2.1051,2.105,2.105,2.1049,0,2.0835,2.0914,2.0855,2.0907,2.0993,2.0939,2.1027,2.1017,2.1018,2.1066,2.1,2.1047,2.0994,2.1036,2.1007,2.1088,2.1097,2.1087,2.1079,2.1094,2.1096,2.111,2.1098,2.1056,2.1055,2.1054,2.1053,0,2.1054,2.1018,2.1102,2.1085,2.1083,2.1148,2.1134,2.118,2.1158,2.122,2.1231,2.1198,2.1243,2.1207,2.1253,2.1233,2.1341,2.1316,2.1339,2.1332,2.1418,2.1411,2.17,2.1736,2.1462,2.1465,2.1467,0,2.1188,2.1247,2.1236,2.1262,2.1264,2.1307,2.1329,2.1278,2.1304,2.1314,2.136,2.1399,2.1428,2.1504,2.1485,2.1519,2.1495,2.1593,2.15,2.1513,2.1498,2.1495,2.1501,2.1614,2.1617,2.1619,2.1622,0,2.143,2.1408,2.1441,2.1468,2.1495,2.1514,2.1528,2.1553,2.1501,2.1533,2.1577,2.1599,2.1644,2.1684,2.1711,2.171,2.1658,2.165,2.1672,2.1689,2.1701,2.1697,2.1392,2.1645,2.1643,2.1641,2.164,2.1639,2.1612,2.166,2.1659,2.1698,2.1702,2.1715,2.1758,2.174,2.1775,2.1806,2.1774,2.1828,2.1831,2.1861,2.1866,2.1908,2.1868,2.1898,2.1906,2.1915,2.1928,2.1692,2.1913,2.1912,2.1911,2.1911,2.191,0,2.1852,2.1846,2.1882,2.1901,2.1932,2.1876,2.1888,2.1918,2.1965,2.1972,2.2,2.2051,2.2089,2.2071,2.2104,2.2141,2.2118,2.2151,2.2149,2.215,2.1962,2.1941,2.2169,2.2169,2.2169,2.2169,2.2169,2.2169,2.198,2.2059,2.2036,2.2116,2.211,2.2161,2.2172,2.2184,2.2189,2.2248,2.2278,2.2265,2.2261,2.2293,2.2325,2.2319,2.2335,2.2378,2.2363,2.2189,2.2163,2.2139,2.2119,2.2381,2.2381,2.2548,2.2549,2.255]},{"header":{"parameterUnit":"m.s-1","parameterCategory":1,"la1":30.2991,"la2":30.254,"lo1":-89.0895,"lo2":-89.0444,"dy":0.0017,"dx":0.0017,"nx":28,"ny":28,"refTime":"2025-03-11T21:00:00:Z","depth":0,"parameterNumber":3,"parameterNumberName":"V-component_of_WINDS"},"data":[0,0,0,0,0,0,0,0,0,0,0,0,0,0,0,0,0,0,0,0,0,0,0,0,0,0,0,0,0,0,0,0,0,0,0,0,0,0,0,0,0,0,0,0,0,0,0,0,0,0,0,0,0,0,0,0,0,0,4.4221,4.4222,0,4.4269,4.4269,4.427,4.4194,4.4192,4.4189,4.4187,4.4231,4.4235,4.4239,0,0,0,0,0,0,0,0,0,0,0,0,0,4.4061,4.4064,4.4221,4.4222,4.4222,4.4269,4.4269,4.427,4.4195,4.4192,4.4189,4.4186,4.423,4.4235,4.4239,0,0,0,0,0,0,0,0,0,0,0,0,0,4.4122,4.4065,4.4221,4.4191,4.4188,4.4268,4.4269,4.427,4.4196,4.4192,4.4188,4.4184,4.4229,4.4234,4.4239,4.435,0,0,4.4256,4.4258,0,0,0,0,0,0,0,0,4.4118,4.4128,4.4195,4.4193,4.4191,4.4222,4.4229,4.4297,4.4197,4.4193,4.4187,4.4182,4.4231,4.4236,4.4253,4.4352,4.4354,4.4256,4.426,4.4262,4.4263,0,0,0,0,0,0,0,4.4114,4.4125,4.424,4.4196,4.4193,4.4173,4.4177,4.4241,4.4233,4.4193,4.4187,4.4194,4.4229,4.4248,4.4254,4.4355,4.4256,4.4261,4.4264,4.4266,4.4545,4.4549,0,0,0,0,0,0,4.4114,4.4122,4.4238,4.4241,4.4144,4.4179,4.4184,4.4216,4.4232,4.4231,4.4198,4.4191,4.4241,4.4248,4.4255,4.4385,4.4262,4.4267,4.427,4.4541,4.4546,4.455,0,0,0,0,0,0,4.4111,4.4125,4.4236,4.418,4.4193,4.4186,4.4222,4.4219,4.4238,4.4236,4.4233,4.4219,4.4238,4.4247,4.4327,4.4385,4.4269,4.4274,4.4536,4.4542,4.4548,4.4645,0,0,0,0,0,0,4.4107,4.4125,4.4168,4.4182,4.4196,4.4309,4.4226,4.4222,4.4248,4.4239,4.4255,4.4254,4.4236,4.4319,4.4332,4.439,4.4278,4.4531,4.4539,4.4546,4.4637,4.4654,4.4669,0,0,0,0,0,4.4102,4.4193,4.4171,4.4185,4.425,4.4313,4.4321,4.4299,4.4253,4.4295,4.4294,4.4254,4.4377,4.4328,4.4342,4.4403,4.4527,4.4536,4.4545,4.463,4.4651,4.4669,0,0,0,0,0,0,4.4185,4.4194,4.417,4.4269,4.4291,4.43,4.4353,4.4322,4.4357,4.4347,4.4318,4.4322,4.4407,4.4413,4.4358,4.451,4.4444,4.4456,4.4503,4.4523,4.4539,4.4535,4.4283,0,0,0,0,0,4.4215,4.4266,4.4271,4.4358,4.437,4.436,4.4386,4.4368,4.4389,4.4397,4.4402,4.4423,4.4466,4.4495,4.4534,4.4638,4.4639,4.4686,4.4702,4.4715,4.4726,4.478,4.48,4.4581,4.4581,4.4581,0,0,4.4277,4.4289,4.4323,4.4375,4.439,4.4442,4.4368,4.4427,4.4465,4.4406,4.4481,4.4485,4.4506,4.4598,4.4638,4.4605,4.4787,4.4727,4.4738,4.4741,4.4791,4.4812,4.483,4.4587,4.4586,4.4585,0,0,4.4417,4.4432,4.4505,4.4522,4.4546,4.4538,4.4556,4.457,4.4571,4.4646,4.4603,4.4646,4.4722,4.4738,4.4757,4.4902,4.4866,4.4916,4.4999,4.5052,4.5069,4.5084,4.5135,4.5154,4.4927,4.4927,4.4927,0,4.4491,4.457,4.4547,4.4608,4.4632,4.4582,4.4655,4.4672,4.4707,4.4723,4.4686,4.4779,4.479,4.4884,4.4919,4.4936,4.4954,4.4914,4.5069,4.5084,4.5097,4.5145,4.5165,4.4933,4.4932,4.4932,4.4931,0,4.4659,4.4714,4.477,4.4807,4.4836,4.4904,4.4889,4.4921,4.49,4.4896,4.4972,4.4984,4.5024,4.5045,4.5025,4.5136,4.5115,4.5074,4.5007,4.5125,4.5169,4.5187,4.4941,4.4939,4.4938,4.4936,0,0,4.4853,4.4875,4.4896,4.4912,4.4934,4.4975,4.5039,4.508,4.5108,4.5134,4.5186,4.5251,4.5213,4.5233,4.5214,4.526,4.5373,4.5213,4.5213,4.5242,4.5495,4.5525,4.5547,4.535,4.5353,4.5356,4.5493,0,4.4991,4.5104,4.5084,4.5192,4.5242,4.5195,4.525,4.5269,4.5267,4.5307,4.5304,4.535,4.5297,4.5309,4.5353,4.5351,4.5424,4.534,4.5396,4.5399,4.5392,4.5571,4.5603,4.5731,4.551,4.5513,4.5516,0,4.5168,4.5202,4.5315,4.5329,4.5349,4.54,4.5435,4.5475,4.5494,4.5489,4.5512,4.5484,4.5546,4.5479,4.5563,4.5507,4.5528,4.5531,4.5535,4.5539,4.5464,4.5578,4.5772,4.5791,4.5543,4.5541,4.5539,0,4.5297,4.537,4.5447,4.5462,4.548,4.5516,4.5525,4.5541,4.5567,4.5597,4.5613,4.565,4.567,4.5698,4.568,4.5633,4.5767,4.5699,4.5763,4.5764,4.5793,4.5791,4.5992,4.5809,4.5808,4.5808,4.5808,0,4.5453,4.5524,4.5505,4.5552,4.563,4.5606,4.5683,4.5686,4.5701,4.5746,4.5708,4.5751,4.5725,4.5766,4.5752,4.5823,4.5833,4.5829,4.5824,4.5832,4.5833,4.5845,4.5835,4.5813,4.5812,4.5811,4.581,0,4.5609,4.56,4.568,4.5691,4.5696,4.5752,4.5761,4.5804,4.5799,4.5857,4.5869,4.5861,4.5907,4.5892,4.5941,4.5932,4.6022,4.6006,4.6015,4.6011,4.6076,4.607,4.6291,4.6319,4.6119,4.6121,4.6122,0,4.5709,4.5763,4.578,4.5808,4.5821,4.5867,4.5893,4.5871,4.59,4.5926,4.5966,4.6009,4.6042,4.6118,4.6115,4.6152,4.6136,4.6211,4.6141,4.6147,4.6136,4.6132,4.6137,4.6225,4.6227,4.6229,4.623,0,4.5887,4.588,4.592,4.5958,4.599,4.6019,4.6044,4.6069,4.6048,4.6082,4.6129,4.6155,4.6206,4.6249,4.6282,4.6289,4.6256,4.6253,4.6269,4.6277,4.628,4.6278,4.6052,4.6247,4.6246,4.6244,4.6244,4.6243,4.6018,4.6063,4.6082,4.6127,4.6143,4.6168,4.6209,4.6209,4.6248,4.6289,4.6273,4.6327,4.6344,4.6386,4.6398,4.6439,4.641,4.6434,4.644,4.6446,4.6454,4.6275,4.6445,4.6444,4.6444,4.6443,4.6443,0,4.6192,4.6202,4.6244,4.6281,4.6316,4.6284,4.6309,4.634,4.6389,4.6408,4.6442,4.6496,4.6537,4.6537,4.6575,4.6607,4.6593,4.6618,4.6615,4.6617,4.6479,4.646,4.6629,4.6629,4.6629,4.6629,4.6629,4.6629,4.6288,4.6362,4.6357,4.6438,4.6447,4.6501,4.6518,4.6539,4.6554,4.6617,4.6651,4.6652,4.6663,4.6701,4.6737,4.6736,4.6751,4.6781,4.6774,4.6645,4.6627,4.6609,4.6591,4.6785,4.6785,4.6909,4.691,4.6911]}]]